Tracking 28779 objects as of 15-Apr-2024
HD Live streaming from Space Station
objects crossing your sky now

GNOMES-1

Track GNOMES-1 now!
10-day predictions


NORAD ID: 46266
Int'l Code: 2020-059B
Perigee: 591.9 km
Apogee: 600.6 km
Inclination: 97.9 °
Period: 96.5 minutes
Semi major axis: 6967 km
RCS: Unknown
Launch date: August 30, 2020
Source: United States (US)
Launch site: AIR FORCE EASTERN TEST RANGE (AFETR)
Your satellite tracking list
Your tracking list is empty




NASA's NSSDC Master Catalog

Two Line Element Set (TLE):
1 46266U 20059B   24106.13061889  .00004171  00000-0  40840-3 0  9991
2 46266  97.8567 304.7517 0006233 104.5360 255.6551 14.92824081196923
Source of the keplerian elements: AFSPC